Location: Dzierzno
(50.6159°N, 19.2852°E)
Time: 03:14:19
(UTC+00:00)

NOSS 3 (A) - Pass Details

Date: 18 November 2025
Orbit: 160 x 953 km, 63.3° (Epoch: 23 April)

Event Time Altitude Azimuth Distance (km) Brightness Sun altitude
Rises 16:12:34 0° 218° (SW) 1,559 8.6 -12.5°
Reaches altitude 10° 16:14:19 10° 215° (SW) 760 6.8 -12.7°
Enters shadow 16:15:42 51° 180° (S) 216 3.4 -13.0°
